Location: Milton Keynes
(52.0316°N, 0.7531°W)
Time: 14:59:39
(UTC+00:00)

Genesis I - Pass Details

Date: 25 January 2019
Orbit: 476 x 550 km, 64.5° (Epoch: 21 February)

Event Time Altitude Azimuth Distance (km) Brightness Sun altitude
Exits shadow 04:34:59 29° 86° (E) 1,026 5.2 -30.2°
Drops below altitude 10° 04:37:32 10° 56° (NE) 1,832 6.7 -29.8°
Sets 04:39:53 0° 48° (NE) 2,733 7.6 -29.5°
